Weather Roundup
Issued by NWS

Home | Current Version | Previous Version | Graphics & Text | Print | Product List | Glossary Off
Versions: 1 2 3 4 5 6 7 8 9 10 11 12 13 14 15 16 17 18 19 20 21 22 23 24 25 26 27 28 29 30 31 32 33 34 35 36 37 38 39 40 41 42 43 44 45 46 47 48 49 50

000
NZUS93 KARX 271910
HRRWXR

CURRENT HOURLY OBSERVATIONS ACROSS
MUCH OF THE UPPER MISSISSIPPI VALLEY
NATIONAL WEATHER SERVICE LA CROSSE WI
200 PM CDT FRI MAR 27 2015


...SOUTHEAST MINNESOTA...


CITY           SKY/WX    TMP DP  RH WIND       PRES   REMARKS
ROCHESTER      FAIR      27   8  44 NW5       30.21F WCI  22
ROCHESTER/MAYO FAIR      28  10  46 NW8       30.22F WCI  20
WINONA         FAIR      34  12  40 CALM      30.23F
AUSTIN         FAIR      27   9  46 NE3       30.21F
ALBERT LEA     FAIR      30  10  43 N9        30.21F WCI  22
DODGE CENTER   FAIR      27   9  46 CALM      30.21F
PRESTON        FAIR      26   7  45 W6        30.21F WCI  19
OWATONNA       FAIR      27   7  43 CALM      30.22F
FARIBAULT      FAIR      30   7  37 N6        30.23F WCI  24
$$

...ELSEWHERE IN MINNESOTA...


CITY           SKY/WX    TMP DP  RH WIND       PRES   REMARKS
MINNEAPOLIS    FAIR      33   0  24 CALM      30.22F
INTNL FALLS    FAIR      31   7  36 VRB6      30.15F WCI  25
DULUTH         FAIR      28   7  41 S8        30.16F WCI  20
RED WING       FAIR      34   3  27 W6        30.22F WCI  29
REDWOOD FALLS  FAIR      32  11  41 SE7       30.20F WCI  26
MANKATO        FAIR      30   7  37 NE3       30.23F
WORTHINGTON    FAIR      32   3  29 SW6       30.18F WCI  26
FAIRMONT       FAIR      36   7  30 SW3       30.20F
$$

...SOUTHWEST WISCONSIN...


CITY           SKY/WX    TMP DP  RH WIND       PRES   REMARKS
LA CROSSE      FAIR      33  11  39 W9        30.22F WCI  25
PRAIRIE DU CHI FAIR      31   6  35 W5        30.22F WCI  26
BOSCOBEL       FAIR      32   7  35 MISG      30.21F
LONE ROCK      FAIR      33   5  30 N9        30.20F WCI  25
PLATTEVILLE    FAIR      30  12  47 N12       30.19F WCI  20
FORT MC COY    FAIR      33   5  31 CALM      30.20F
CAMP DOUGLAS   SUNNY     32   5  32 N8        30.18F WCI  25
VIROQUA        FAIR      29   9  42 NW3       30.18F
WIS DELLS      FAIR      31   0  27 N5        30.17F WCI  26
$$

...ELSEWHERE IN WISCONSIN...


CITY           SKY/WX    TMP DP  RH WIND       PRES   REMARKS
MILWAUKEE      FAIR      28   9  44 NE17      30.18S WCI  16
MADISON        FAIR      32   4  30 NE10G20   30.17F WCI  24
GREEN BAY      FAIR      28  11  48 NE10G18   30.20F WCI  19
EAU CLAIRE     FAIR      31   4  31 E5        30.20F WCI  26
BLACK RVR FLS  FAIR      32   5  31 W9        30.20F WCI  24
MEDFORD        FAIR      27   6  40 CALM      30.16F
WAUSAU         FAIR      27   5  39 VRB7      30.15F WCI  19
WIS RAPIDS     FAIR      28   5  37 N8        30.20F WCI  20
MARSHFIELD     FAIR      29  11  47 N10       30.18F WCI  20
RICE LAKE      FAIR      31   4  32 CALM      30.22F
$$

...NORTHEAST IOWA...


CITY           SKY/WX    TMP DP  RH WIND       PRES   REMARKS
DECORAH        FAIR      27   7  43 NW12      30.20F WCI  16
MASON CITY     FAIR      35  10  35 N6        30.21F WCI  30
CHARLES CITY   FAIR      32  12  43 VRB6G14   30.22F WCI  26
OELWEIN        FAIR      32  10  40 N10G16    30.21F WCI  24
$$

...ELSEWHERE IN IOWA...


CITY           SKY/WX    TMP DP  RH WIND       PRES   REMARKS
DES MOINES     PTSUNNY   40   9  28 E9        30.22F WCI  34
IOWA CITY      FAIR      35   7  31 VRB5      30.22F WCI  31
FORT DODGE     FAIR      36  10  35 CALM      30.22F
$$

...NORTHERN ILLINOIS...


CITY           SKY/WX    TMP DP  RH WIND       PRES   REMARKS
CHICAGO-OHARE  PTSUNNY   30  11  45 NE9G18    30.16S WCI  22
CHICAGO-MIDWAY PTSUNNY   30  10  43 N14G21    30.17S WCI  19
MOLINE         FAIR      35   9  33 NE9       30.20F WCI  28
ROCKFORD       FAIR      33   4  29 N16G23    30.19F WCI  23
PEORIA         FAIR      35   9  33 NW13G23   30.18F WCI  26
$$

NOTE: "FAIR" INDICATES FEW OR NO CLOUDS BELOW 12,000 FEET WITH NO
SIGNIFICANT WEATHER AND/OR OBSTRUCTIONS TO VISIBILITY. WIND
SPEEDS ARE IN MILES-PER-HOUR.



USA.gov is the U.S. government's official web portal to all federal, state and local government web resources and services.